<?xml version="1.0"?>
<gpx xmlns="http://www.topografix.com/GPX/1/1" xmlns:xsi="http://www.w3.org/2001/XMLSchema-instance" version="1.1" creator="GPX RubyGem 1.0.0 -- http://dougfales.github.io/gpx/" xsi:schemaLocation="http://www.topografix.com/GPX/1/1 http://www.topografix.com/GPX/1/1/gpx.xsd">
  <metadata>
    <name/>
    <time>2026-05-09T18:51:44+00:00</time>
    <bound minlat="90.0" minlon="180.0" maxlat="-90.0" maxlon="-180.0"/>
  </metadata>
  <trk>
    <name/>
    <trkseg>
      <trkpt lat="51.916239" lon="10.298887">
        <time>1970-01-01T00:00:00+00:00</time>
        <ele>234.0</ele>
      </trkpt>
      <trkpt lat="51.916243" lon="10.298877">
        <time>1970-01-01T00:00:00+00:00</time>
        <ele>234.0</ele>
      </trkpt>
      <trkpt lat="51.916302" lon="10.298755">
        <time>1970-01-01T00:00:00+00:00</time>
        <ele>234.0</ele>
      </trkpt>
      <trkpt lat="51.916468" lon="10.298444">
        <time>1970-01-01T00:00:00+00:00</time>
        <ele>234.0</ele>
      </trkpt>
      <trkpt lat="51.916591" lon="10.298142">
        <time>1970-01-01T00:00:00+00:00</time>
        <ele>234.0</ele>
      </trkpt>
      <trkpt lat="51.916617" lon="10.298015">
        <time>1970-01-01T00:00:00+00:00</time>
        <ele>234.0</ele>
      </trkpt>
      <trkpt lat="51.916646" lon="10.297748">
        <time>1970-01-01T00:00:00+00:00</time>
        <ele>234.0</ele>
      </trkpt>
      <trkpt lat="51.916673" lon="10.297533">
        <time>1970-01-01T00:00:00+00:00</time>
        <ele>235.0</ele>
      </trkpt>
      <trkpt lat="51.916729" lon="10.297296">
        <time>1970-01-01T00:00:00+00:00</time>
        <ele>237.0</ele>
      </trkpt>
      <trkpt lat="51.916748" lon="10.297264">
        <time>1970-01-01T00:00:00+00:00</time>
        <ele>237.0</ele>
      </trkpt>
      <trkpt lat="51.916738" lon="10.297042">
        <time>1970-01-01T00:00:00+00:00</time>
        <ele>237.0</ele>
      </trkpt>
      <trkpt lat="51.916912" lon="10.296664">
        <time>1970-01-01T00:00:00+00:00</time>
        <ele>241.0</ele>
      </trkpt>
      <trkpt lat="51.917087" lon="10.29641">
        <time>1970-01-01T00:00:00+00:00</time>
        <ele>246.0</ele>
      </trkpt>
      <trkpt lat="51.917284" lon="10.296173">
        <time>1970-01-01T00:00:00+00:00</time>
        <ele>251.0</ele>
      </trkpt>
      <trkpt lat="51.917403" lon="10.296103">
        <time>1970-01-01T00:00:00+00:00</time>
        <ele>254.0</ele>
      </trkpt>
      <trkpt lat="51.917534" lon="10.29594">
        <time>1970-01-01T00:00:00+00:00</time>
        <ele>257.0</ele>
      </trkpt>
      <trkpt lat="51.917599" lon="10.29583">
        <time>1970-01-01T00:00:00+00:00</time>
        <ele>258.0</ele>
      </trkpt>
      <trkpt lat="51.917539" lon="10.295359">
        <time>1970-01-01T00:00:00+00:00</time>
        <ele>262.0</ele>
      </trkpt>
      <trkpt lat="51.917594" lon="10.295262">
        <time>1970-01-01T00:00:00+00:00</time>
        <ele>261.0</ele>
      </trkpt>
      <trkpt lat="51.918201" lon="10.293933">
        <time>1970-01-01T00:00:00+00:00</time>
        <ele>264.0</ele>
      </trkpt>
      <trkpt lat="51.918259" lon="10.293849">
        <time>1970-01-01T00:00:00+00:00</time>
        <ele>264.0</ele>
      </trkpt>
      <trkpt lat="51.918448" lon="10.293848">
        <time>1970-01-01T00:00:00+00:00</time>
        <ele>266.0</ele>
      </trkpt>
      <trkpt lat="51.918619" lon="10.293778">
        <time>1970-01-01T00:00:00+00:00</time>
        <ele>268.0</ele>
      </trkpt>
      <trkpt lat="51.918678" lon="10.293691">
        <time>1970-01-01T00:00:00+00:00</time>
        <ele>269.0</ele>
      </trkpt>
      <trkpt lat="51.918727" lon="10.293436">
        <time>1970-01-01T00:00:00+00:00</time>
        <ele>271.0</ele>
      </trkpt>
      <trkpt lat="51.918765" lon="10.293114">
        <time>1970-01-01T00:00:00+00:00</time>
        <ele>271.0</ele>
      </trkpt>
      <trkpt lat="51.918786" lon="10.292709">
        <time>1970-01-01T00:00:00+00:00</time>
        <ele>273.0</ele>
      </trkpt>
      <trkpt lat="51.91878" lon="10.292403">
        <time>1970-01-01T00:00:00+00:00</time>
        <ele>275.0</ele>
      </trkpt>
      <trkpt lat="51.918705" lon="10.291933">
        <time>1970-01-01T00:00:00+00:00</time>
        <ele>278.0</ele>
      </trkpt>
      <trkpt lat="51.918524" lon="10.291249">
        <time>1970-01-01T00:00:00+00:00</time>
        <ele>282.0</ele>
      </trkpt>
      <trkpt lat="51.918312" lon="10.290554">
        <time>1970-01-01T00:00:00+00:00</time>
        <ele>286.0</ele>
      </trkpt>
      <trkpt lat="51.918142" lon="10.289999">
        <time>1970-01-01T00:00:00+00:00</time>
        <ele>292.0</ele>
      </trkpt>
      <trkpt lat="51.918117" lon="10.289924">
        <time>1970-01-01T00:00:00+00:00</time>
        <ele>292.0</ele>
      </trkpt>
      <trkpt lat="51.918092" lon="10.289851">
        <time>1970-01-01T00:00:00+00:00</time>
        <ele>293.0</ele>
      </trkpt>
      <trkpt lat="51.917982" lon="10.289558">
        <time>1970-01-01T00:00:00+00:00</time>
        <ele>298.0</ele>
      </trkpt>
      <trkpt lat="51.917602" lon="10.288431">
        <time>1970-01-01T00:00:00+00:00</time>
        <ele>307.0</ele>
      </trkpt>
      <trkpt lat="51.917245" lon="10.287476">
        <time>1970-01-01T00:00:00+00:00</time>
        <ele>313.0</ele>
      </trkpt>
      <trkpt lat="51.916384" lon="10.284784">
        <time>1970-01-01T00:00:00+00:00</time>
        <ele>341.0</ele>
      </trkpt>
      <trkpt lat="51.916066" lon="10.283703">
        <time>1970-01-01T00:00:00+00:00</time>
        <ele>340.0</ele>
      </trkpt>
      <trkpt lat="51.915801" lon="10.282725">
        <time>1970-01-01T00:00:00+00:00</time>
        <ele>348.0</ele>
      </trkpt>
      <trkpt lat="51.915665" lon="10.282128">
        <time>1970-01-01T00:00:00+00:00</time>
        <ele>350.0</ele>
      </trkpt>
      <trkpt lat="51.915665" lon="10.282128">
        <time>1970-01-01T00:00:00+00:00</time>
        <ele>350.0</ele>
      </trkpt>
      <trkpt lat="51.915801" lon="10.282725">
        <time>1970-01-01T00:00:00+00:00</time>
        <ele>348.0</ele>
      </trkpt>
      <trkpt lat="51.916066" lon="10.283703">
        <time>1970-01-01T00:00:00+00:00</time>
        <ele>340.0</ele>
      </trkpt>
      <trkpt lat="51.916384" lon="10.284784">
        <time>1970-01-01T00:00:00+00:00</time>
        <ele>341.0</ele>
      </trkpt>
      <trkpt lat="51.917245" lon="10.287476">
        <time>1970-01-01T00:00:00+00:00</time>
        <ele>313.0</ele>
      </trkpt>
      <trkpt lat="51.917602" lon="10.288431">
        <time>1970-01-01T00:00:00+00:00</time>
        <ele>307.0</ele>
      </trkpt>
      <trkpt lat="51.917982" lon="10.289558">
        <time>1970-01-01T00:00:00+00:00</time>
        <ele>298.0</ele>
      </trkpt>
      <trkpt lat="51.918092" lon="10.289851">
        <time>1970-01-01T00:00:00+00:00</time>
        <ele>293.0</ele>
      </trkpt>
      <trkpt lat="51.918117" lon="10.289924">
        <time>1970-01-01T00:00:00+00:00</time>
        <ele>292.0</ele>
      </trkpt>
      <trkpt lat="51.918142" lon="10.289999">
        <time>1970-01-01T00:00:00+00:00</time>
        <ele>292.0</ele>
      </trkpt>
      <trkpt lat="51.918312" lon="10.290554">
        <time>1970-01-01T00:00:00+00:00</time>
        <ele>286.0</ele>
      </trkpt>
      <trkpt lat="51.918524" lon="10.291249">
        <time>1970-01-01T00:00:00+00:00</time>
        <ele>282.0</ele>
      </trkpt>
      <trkpt lat="51.918705" lon="10.291933">
        <time>1970-01-01T00:00:00+00:00</time>
        <ele>278.0</ele>
      </trkpt>
      <trkpt lat="51.91878" lon="10.292403">
        <time>1970-01-01T00:00:00+00:00</time>
        <ele>275.0</ele>
      </trkpt>
      <trkpt lat="51.918786" lon="10.292709">
        <time>1970-01-01T00:00:00+00:00</time>
        <ele>273.0</ele>
      </trkpt>
      <trkpt lat="51.918765" lon="10.293114">
        <time>1970-01-01T00:00:00+00:00</time>
        <ele>271.0</ele>
      </trkpt>
      <trkpt lat="51.918727" lon="10.293436">
        <time>1970-01-01T00:00:00+00:00</time>
        <ele>271.0</ele>
      </trkpt>
      <trkpt lat="51.918678" lon="10.293691">
        <time>1970-01-01T00:00:00+00:00</time>
        <ele>269.0</ele>
      </trkpt>
      <trkpt lat="51.918619" lon="10.293778">
        <time>1970-01-01T00:00:00+00:00</time>
        <ele>268.0</ele>
      </trkpt>
      <trkpt lat="51.918448" lon="10.293848">
        <time>1970-01-01T00:00:00+00:00</time>
        <ele>266.0</ele>
      </trkpt>
      <trkpt lat="51.918259" lon="10.293849">
        <time>1970-01-01T00:00:00+00:00</time>
        <ele>264.0</ele>
      </trkpt>
      <trkpt lat="51.918201" lon="10.293933">
        <time>1970-01-01T00:00:00+00:00</time>
        <ele>264.0</ele>
      </trkpt>
      <trkpt lat="51.917594" lon="10.295262">
        <time>1970-01-01T00:00:00+00:00</time>
        <ele>261.0</ele>
      </trkpt>
      <trkpt lat="51.917539" lon="10.295359">
        <time>1970-01-01T00:00:00+00:00</time>
        <ele>262.0</ele>
      </trkpt>
      <trkpt lat="51.917599" lon="10.29583">
        <time>1970-01-01T00:00:00+00:00</time>
        <ele>258.0</ele>
      </trkpt>
      <trkpt lat="51.917534" lon="10.29594">
        <time>1970-01-01T00:00:00+00:00</time>
        <ele>257.0</ele>
      </trkpt>
      <trkpt lat="51.917403" lon="10.296103">
        <time>1970-01-01T00:00:00+00:00</time>
        <ele>254.0</ele>
      </trkpt>
      <trkpt lat="51.917284" lon="10.296173">
        <time>1970-01-01T00:00:00+00:00</time>
        <ele>251.0</ele>
      </trkpt>
      <trkpt lat="51.917087" lon="10.29641">
        <time>1970-01-01T00:00:00+00:00</time>
        <ele>246.0</ele>
      </trkpt>
      <trkpt lat="51.916912" lon="10.296664">
        <time>1970-01-01T00:00:00+00:00</time>
        <ele>241.0</ele>
      </trkpt>
      <trkpt lat="51.916738" lon="10.297042">
        <time>1970-01-01T00:00:00+00:00</time>
        <ele>237.0</ele>
      </trkpt>
      <trkpt lat="51.916748" lon="10.297264">
        <time>1970-01-01T00:00:00+00:00</time>
        <ele>237.0</ele>
      </trkpt>
      <trkpt lat="51.916729" lon="10.297296">
        <time>1970-01-01T00:00:00+00:00</time>
        <ele>237.0</ele>
      </trkpt>
      <trkpt lat="51.916673" lon="10.297533">
        <time>1970-01-01T00:00:00+00:00</time>
        <ele>235.0</ele>
      </trkpt>
      <trkpt lat="51.916646" lon="10.297748">
        <time>1970-01-01T00:00:00+00:00</time>
        <ele>234.0</ele>
      </trkpt>
      <trkpt lat="51.916617" lon="10.298015">
        <time>1970-01-01T00:00:00+00:00</time>
        <ele>234.0</ele>
      </trkpt>
      <trkpt lat="51.916591" lon="10.298142">
        <time>1970-01-01T00:00:00+00:00</time>
        <ele>234.0</ele>
      </trkpt>
      <trkpt lat="51.916468" lon="10.298444">
        <time>1970-01-01T00:00:00+00:00</time>
        <ele>234.0</ele>
      </trkpt>
      <trkpt lat="51.916302" lon="10.298755">
        <time>1970-01-01T00:00:00+00:00</time>
        <ele>234.0</ele>
      </trkpt>
      <trkpt lat="51.916243" lon="10.298877">
        <time>1970-01-01T00:00:00+00:00</time>
        <ele>234.0</ele>
      </trkpt>
      <trkpt lat="51.916239" lon="10.298887">
        <time>1970-01-01T00:00:00+00:00</time>
        <ele>234.0</ele>
      </trkpt>
    </trkseg>
  </trk>
</gpx>
